UKUBE-1

Last updated on Thu Nov 21 2024 00:03:39 GMT+0000 (Coordinated Universal Time)

1 40074U 14037F 24324.37714662 .00012966 00000+0 10742-2 0 9990 2 40074 98.3529 264.4276 0001018 301.0707 59.0414 14.98998838561981
UTC large
Height (km)
Speed (km/s)
/
Latitude / Longitude
Inclination (degrees)
Orbital Period (minutes)
Azimuth
Elevation
Range (km)
Doppler Factor

Next 0 passes for location: London (51.5072 / 0.1276)

Sorry there are no passes over London.